Temp
16 17 18 19 19 20 21 21 19 19 19 17 16 16 15 16 15 14 13 12 12 11 11 10 10 10 10 10 11 11 11 10 10 10 10 10 10 9 9 9 9 9 9 9
17 17 19 20 20 20 21 21 21 20 19 19 17 16 16 16 16 15 14 13 13 12 12 13 12 10 10 9 11 11 11 10 10 10 10 10 10 10 10 10 10 10 10 10
17 18 19 20 20 20 20 21 21 21 20 19 19 17 14 16 16 15 15 14 13 12 12 14 14 13 12 12 11 11 11 10 10 10 10 10 10 10 9 9 9 11 10 10
18 18 19 19 20 20 20 20 20 21 20 20 19 19 17 16 16 16 15 14 14 13 12 12 14 13 13 12 11 11 11 11 10 10 10 10 10 10 9 8 9 9 9 9
18 19 19 19 20 20 20 20 20 20 20 20 20 19 17 17 16 16 15 15 14 13 12 11 11 12 11 12 12 11 11 11 10 10 10 11 11 11 10 10 10 9 9 9
19 19 19 19 19 19 19 20 20 20 20 20 20 20 18 15 16 16 16 15 15 14 13 12 12 11 10 12 12 12 11 11 11 10 10 11 11 11 11 11 10 10 9 9
18 19 20 19 19 19 20 19 20 20 20 20 21 20 19 18 17 17 16 15 15 14 14 13 12 11 11 12 12 12 12 11 11 10 10 11 11 11 11 11 10 9 9 8
19 19 19 19 19 20 20 19 20 19 21 21 21 20 19 19 18 17 16 16 16 15 14 13 12 12 11 11 12 12 12 11 11 10 10 10 10 10 10 10 10 9 9 8
19 19 20 19 20 20 19 19 20 21 21 21 21 20 20 19 18 18 17 17 17 16 15 14 13 12 12 11 11 12 12 12 11 11 10 10 11 10 9 10 10 9 9 8
19 20 20 20 19 19 19 19 19 20 20 20 21 21 20 18 18 17 17 17 17 16 15 14 13 12 12 11 11 12 12 12 11 11 10 10 10 10 9 10 10 9 8 8
20 20 20 20 19 19 19 19 20 20 20 21 21 19 18 18 18 18 17 17 16 16 15 14 13 12 12 11 11 12 12 12 11 11 10 10 10 10 9 9 9 9 9 8
19 20 20 20 20 19 20 19 19 19 20 19 19 20 19 18 17 17 17 16 16 15 15 15 14 12 12 11 11 11 13 12 11 11 10 10 10 10 9 9 9 8 8 7
19 19 20 20 20 20 19 19 19 19 19 19 20 19 18 18 17 17 17 16 16 15 15 15 14 12 12 12 11 12 13 12 11 10 10 10 10 10 9 9 9 8 7 6
19 19 19 20 20 20 19 19 19 19 20 20 19 19 17 17 17 16 16 15 15 15 14 14 14 12 12 12 13 12 12 11 10 10 10 10 10 9 9 9 8 7 6 6
19 18 19 19 19 19 20 19 19 19 19 19 19 17 18 14 16 16 15 16 15 15 14 14 13 13 12 12 12 12 11 10 9 10 10 9 9 9 9 9 8 6 5 5
18 18 18 18 19 19 19 20 19 19 19 19 19 19 18 17 15 15 15 14 14 14 14 14 13 13 12 12 12 12 12 10 9 10 9 9 9 8 9 8 6 6 5 4
17 17 17 17 18 18 19 19 20 20 19 19 19 19 17 15 15 15 14 14 14 15 13 13 13 12 12 12 12 12 11 10 9 9 9 8 8 8 8 7 6 5 4 4
16 17 17 17 17 18 18 19 19 19 19 19 18 17 16 15 14 14 14 14 15 13 12 13 13 12 11 11 11 10 10 9 9 9 8 8 8 8 7 6 5 5 4 4
15 16 16 17 17 18 18 18 18 16 17 18 18 17 16 14 14 14 14 14 13 13 13 13 12 12 11 10 10 10 10 10 9 8 8 9 8 7 6 5 5 5 4 4
14 13 11 16 17 18 18 17 17 14 15 15 15 16 16 14 14 13 13 13 13 12 12 13 13 11 10 10 9 10 10 9 9 8 9 8 7 6 6 5 5 4 4 4
16 15 15 16 16 16 17 16 15 13 13 13 14 14 14 13 13 13 12 12 12 12 11 12 12 11 11 10 9 10 9 8 8 8 8 7 6 6 5 5 4 4 4 3
14 14 14 15 16 16 16 14 13 12 12 12 13 13 12 12 12 12 13 12 12 11 11 11 11 11 10 10 9 9 9 8 8 8 7 6 6 5 4 4 4 3 3 3
14 14 12 12 11 11 12 11 11 11 11 11 12 12 12 12 12 12 13 13 11 11 10 10 11 10 10 10 9 8 8 8 8 7 6 6 5 5 5 4 4 3 3 3
12 11 11 11 11 10 8 11 11 11 11 11 10 10 11 12 12 12 12 12 11 10 10 9 9 10 9 8 7 9 9 8 7 7 7 6 6 5 4 3 3 3 3 2
9 11 10 11 7 8 9 10 10 11 11 11 11 11 11 11 11 11 11 10 10 10 9 9 8 8 8 7 8 9 4 6 6 6 7 6 4 4 3 3 3 2 3 3
11 9 9 7 10 8 7 8 9 9 9 9 10 10 9 9 9 9 9 9 9 9 9 9 8 8 8 6 4 6 5 6 5 6 6 4 4 3 3 3 3 3 3 2
Height
3165 3169 3167 3168 3171 3169 3170 3172 3179 3179 3178 3178 3185 3185 3189 3193 3196 3198 3199 3199 3201 3201 3201 3201 3200 3200 3201 3202 3204 3204 3205 3206 3208 3208 3208 3207 3206 3206 3204 3204 3203 3203 3203 3203
3165 3162 3164 3166 3168 3168 3168 3169 3172 3177 3178 3179 3184 3187 3189 3192 3192 3195 3198 3198 3200 3201 3199 3199 3199 3201 3203 3203 3204 3205 3205 3206 3206 3206 3206 3205 3204 3202 3201 3200 3199 3198 3197 3196
3158 3161 3162 3163 3165 3167 3166 3168 3169 3173 3176 3179 3182 3182 3183 3193 3193 3192 3195 3196 3198 3198 3197 3197 3198 3200 3201 3203 3204 3205 3205 3205 3205 3205 3205 3204 3201 3199 3198 3195 3193 3192 3193 3191
3156 3158 3160 3161 3162 3165 3166 3169 3169 3170 3172 3174 3176 3177 3176 3184 3187 3188 3189 3191 3195 3195 3195 3195 3197 3198 3200 3201 3202 3204 3204 3204 3205 3205 3203 3201 3198 3195 3193 3192 3190 3191 3190 3188
3152 3153 3155 3157 3159 3162 3165 3167 3168 3168 3169 3172 3172 3175 3170 3181 3180 3181 3184 3188 3191 3193 3194 3194 3195 3197 3198 3200 3201 3202 3203 3203 3203 3203 3202 3199 3195 3191 3189 3187 3188 3187 3185 3184
3148 3151 3152 3154 3157 3160 3163 3164 3163 3166 3168 3166 3165 3169 3171 3175 3177 3175 3183 3188 3189 3191 3192 3194 3194 3195 3197 3198 3199 3200 3201 3202 3202 3201 3200 3197 3193 3190 3187 3184 3183 3182 3180 3178
3145 3144 3147 3151 3154 3156 3159 3162 3163 3165 3162 3159 3158 3161 3164 3166 3170 3172 3172 3172 3182 3185 3189 3191 3192 3191 3193 3194 3196 3197 3198 3199 3199 3199 3197 3195 3191 3187 3185 3183 3181 3180 3178 3176
3139 3140 3142 3146 3148 3150 3154 3158 3157 3157 3151 3149 3152 3157 3161 3163 3164 3165 3169 3172 3175 3178 3182 3185 3188 3188 3188 3190 3192 3193 3195 3196 3196 3196 3194 3193 3190 3186 3183 3181 3179 3177 3175 3173
3133 3135 3138 3142 3145 3148 3152 3154 3154 3151 3148 3149 3150 3153 3157 3159 3163 3166 3170 3174 3174 3175 3178 3179 3181 3183 3185 3185 3188 3189 3191 3192 3193 3192 3191 3190 3189 3186 3183 3179 3177 3174 3171 3168
3130 3133 3133 3139 3144 3145 3147 3152 3153 3150 3148 3148 3144 3148 3148 3153 3160 3163 3166 3169 3173 3174 3174 3177 3179 3178 3178 3181 3183 3185 3187 3188 3189 3188 3189 3186 3184 3183 3181 3178 3174 3171 3168 3165
3123 3126 3129 3133 3135 3140 3144 3146 3147 3148 3148 3145 3145 3151 3150 3154 3158 3161 3164 3167 3170 3172 3173 3172 3176 3176 3174 3177 3178 3180 3182 3183 3185 3184 3185 3183 3181 3178 3176 3173 3170 3167 3164 3161
3119 3123 3122 3124 3130 3135 3139 3142 3145 3147 3147 3147 3146 3150 3148 3152 3156 3158 3160 3163 3165 3167 3168 3169 3171 3172 3170 3172 3172 3174 3176 3178 3179 3180 3180 3180 3179 3176 3172 3169 3165 3162 3159 3157
3117 3119 3120 3122 3126 3129 3134 3138 3142 3144 3145 3144 3145 3147 3148 3151 3153 3155 3157 3158 3160 3161 3165 3167 3168 3168 3166 3167 3168 3169 3170 3172 3173 3175 3176 3175 3173 3171 3168 3165 3161 3158 3155 3153
3113 3114 3118 3117 3121 3124 3128 3133 3136 3138 3138 3140 3141 3145 3148 3149 3150 3151 3154 3155 3155 3156 3158 3159 3160 3161 3161 3161 3163 3163 3165 3165 3167 3169 3170 3170 3168 3167 3163 3160 3156 3153 3151 3149
3107 3110 3115 3117 3118 3120 3123 3126 3129 3132 3134 3135 3137 3143 3146 3147 3153 3149 3147 3149 3150 3152 3152 3152 3153 3154 3155 3155 3157 3158 3159 3161 3161 3164 3164 3163 3161 3160 3159 3155 3152 3149 3147 3144
3102 3108 3113 3116 3116 3118 3118 3118 3120 3124 3127 3129 3132 3135 3130 3139 3141 3144 3143 3144 3146 3144 3146 3149 3146 3148 3147 3148 3151 3153 3155 3156 3159 3159 3161 3160 3157 3154 3152 3149 3146 3144 3143 3140
3100 3105 3111 3113 3115 3115 3113 3113 3114 3116 3120 3125 3126 3132 3130 3132 3136 3135 3136 3138 3138 3137 3139 3141 3143 3142 3142 3142 3145 3147 3149 3152 3154 3155 3156 3155 3152 3150 3147 3145 3143 3141 3138 3136
3098 3101 3104 3108 3111 3106 3108 3109 3110 3111 3116 3118 3118 3121 3125 3125 3130 3130 3128 3132 3131 3134 3134 3135 3137 3138 3137 3137 3139 3142 3144 3146 3148 3150 3151 3149 3147 3144 3141 3140 3138 3135 3132 3130
3087 3094 3100 3099 3099 3102 3105 3104 3106 3107 3111 3116 3114 3115 3119 3121 3130 3129 3123 3125 3129 3131 3130 3130 3131 3133 3132 3132 3132 3135 3138 3140 3143 3144 3144 3142 3141 3138 3136 3132 3130 3127 3125 3124
3094 3091 3100 3084 3094 3093 3097 3099 3101 3103 3104 3109 3111 3111 3115 3118 3126 3122 3118 3123 3125 3126 3126 3126 3126 3126 3127 3127 3126 3130 3132 3135 3138 3138 3138 3137 3134 3132 3130 3127 3123 3121 3120 3117
3087 3087 3088 3089 3091 3092 3096 3092 3092 3103 3108 3108 3114 3110 3112 3117 3120 3120 3120 3119 3120 3121 3121 3121 3122 3121 3121 3123 3123 3127 3128 3130 3132 3131 3131 3129 3126 3124 3123 3121 3118 3117 3115 3112
3081 3079 3080 3083 3086 3089 3092 3091 3095 3104 3104 3108 3106 3108 3112 3116 3117 3117 3117 3117 3115 3116 3116 3118 3118 3117 3119 3121 3120 3121 3124 3126 3126 3127 3125 3123 3120 3117 3116 3114 3111 3110 3107 3104
3079 3074 3080 3083 3087 3088 3093 3087 3092 3101 3100 3101 3103 3105 3109 3111 3110 3109 3109 3114 3112 3111 3112 3113 3114 3114 3115 3116 3115 3115 3116 3118 3121 3120 3118 3117 3115 3111 3111 3108 3104 3101 3100 3095
3076 3075 3080 3081 3080 3080 3087 3077 3086 3090 3095 3096 3099 3102 3102 3103 3103 3102 3103 3107 3107 3107 3107 3108 3110 3110 3111 3108 3107 3111 3108 3112 3113 3115 3113 3110 3107 3104 3102 3098 3093 3089 3090 3088
3075 3067 3076 3081 3073 3084 3080 3082 3084 3088 3091 3093 3094 3095 3096 3095 3095 3095 3097 3101 3100 3101 3100 3101 3102 3100 3100 3097 3089 3088 3067 3096 3101 3106 3102 3101 3097 3095 3094 3088 3074 3078 3083 3084
3074 3080 3071 3069 3069 3075 3074 3080 3078 3084 3088 3088 3089 3091 3091 3092 3091 3091 3092 3093 3092 3093 3095 3094 3095 3096 3095 3082 3080 3082 3090 3094 3093 3094 3093 3090 3090 3088 3086 3082 3079 3079 3077 3075
Wind_Speed
21 23 24 22 21 19 17 15 17 11 20 19 14 18 19 17 14 14 16 15 14 13 14 12 8 4 5 5 6 7 7 5 7 8 9 12 15 17 19 20 21 22 24 27
23 29 22 19 21 21 20 13 15 16 14 13 11 17 19 18 17 16 17 17 17 16 18 12 12 14 10 11 2 4 6 5 4 6 8 10 12 17 19 21 23 24 25 26
28 26 22 19 20 21 20 16 14 18 14 10 12 16 25 15 17 17 18 18 19 22 19 12 8 7 9 8 6 6 7 9 9 13 14 14 14 13 14 18 17 18 20 23
26 23 24 23 22 20 23 17 18 19 15 18 20 22 27 25 21 20 21 21 22 23 22 18 14 12 11 10 8 5 4 7 9 13 19 22 19 14 16 19 21 17 20 18
29 26 28 27 25 22 20 18 21 17 17 19 18 16 27 25 25 25 25 25 23 24 24 23 18 16 15 10 8 5 2 4 8 13 20 25 21 17 16 17 12 14 16 15
24 22 23 25 22 21 20 14 22 17 18 24 24 18 12 22 32 35 24 25 26 26 24 24 22 22 21 14 10 6 1 3 7 11 19 25 25 21 18 17 17 17 19 21
26 27 21 21 23 22 21 17 13 12 15 16 21 23 18 19 20 22 18 30 32 27 27 26 27 27 27 21 15 6 4 6 9 12 19 26 29 27 22 18 16 16 19 21
28 28 25 24 27 23 23 22 17 13 12 17 17 12 23 11 10 10 14 31 24 30 31 31 30 31 32 30 26 16 13 12 12 14 18 25 29 32 27 22 17 18 21 22
29 28 26 27 23 25 20 27 24 23 17 9 10 15 15 14 12 11 10 15 25 24 31 33 32 34 35 37 33 28 21 18 18 18 19 24 30 29 32 24 22 23 25 24
24 22 26 26 22 23 23 19 20 24 9 10 11 12 18 20 14 10 8 12 15 23 30 31 32 34 38 38 36 33 26 22 21 22 21 23 30 30 33 29 26 25 24 23
35 26 26 28 29 30 27 19 17 18 18 10 9 6 14 14 11 8 7 8 8 13 23 31 32 34 38 38 37 36 29 25 23 24 21 21 28 32 34 36 29 27 26 24
32 20 24 38 26 26 28 24 15 18 13 14 15 9 12 11 9 11 9 5 7 10 12 31 28 32 38 39 39 39 27 27 27 26 23 22 26 31 35 38 33 29 26 24
30 26 18 20 27 28 27 24 26 23 20 21 16 9 11 9 12 9 9 6 7 11 10 23 29 30 38 39 38 33 26 28 30 28 25 26 27 32 34 38 34 29 26 26
30 32 26 25 25 27 30 29 29 30 27 25 23 12 15 13 13 11 6 5 7 11 16 24 24 32 35 34 30 32 30 31 30 28 27 28 29 30 33 39 33 28 26 24
30 22 26 28 28 24 25 29 29 29 31 28 23 15 20 10 20 13 15 14 10 12 18 23 27 27 37 38 36 35 33 33 32 25 27 29 30 31 35 36 28 26 23 24
25 18 19 24 24 25 28 28 29 29 28 30 27 28 21 18 5 9 6 9 13 14 17 23 27 30 36 41 40 39 35 35 29 27 25 31 30 34 37 31 28 28 28 25
26 27 26 25 24 26 31 30 29 27 28 26 25 17 11 13 17 11 9 16 16 22 20 24 28 29 37 40 41 39 39 31 28 26 25 28 30 35 32 27 26 27 29 28
23 32 30 29 28 21 27 25 25 24 24 24 24 23 14 16 7 7 7 15 21 18 17 17 21 25 32 37 39 40 36 28 26 22 23 27 32 34 30 28 29 27 30 37
12 22 28 30 29 24 23 16 2 3 13 15 14 22 21 9 7 8 13 7 12 16 14 14 20 24 30 35 36 33 32 22 20 19 23 30 32 29 29 32 31 32 31 31
16 17 35 8 17 18 26 18 22 9 17 7 6 17 22 14 7 6 7 11 14 16 17 15 13 23 28 32 33 23 18 17 15 17 26 29 29 28 30 33 34 30 30 36
27 21 20 20 23 30 23 18 15 22 31 20 12 4 7 1 7 7 10 15 19 17 16 17 14 16 21 28 29 18 15 16 15 21 28 29 29 32 34 34 33 30 36 37
27 18 22 29 26 26 27 13 18 12 22 12 9 7 9 15 10 9 8 15 21 16 15 16 14 18 17 19 24 18 17 16 19 25 28 29 33 35 30 32 38 33 36 37
19 31 23 13 5 10 3 14 19 16 12 15 17 15 15 16 17 20 27 19 24 20 18 14 18 20 21 21 23 28 26 22 20 25 29 31 33 37 37 34 38 33 38 40
17 6 3 15 25 12 8 8 12 11 11 7 5 6 13 19 26 29 32 23 21 19 20 19 20 22 24 25 26 29 27 19 24 29 34 37 37 31 32 31 37 34 36 33
19 13 22 8 3 15 21 17 11 13 16 18 21 23 25 28 29 31 26 16 22 21 21 22 28 30 33 37 36 35 6 15 23 30 30 28 23 24 28 33 27 21 34 39
9 2 2 9 11 2 10 5 5 11 12 15 19 21 19 14 12 13 16 22 25 28 28 34 34 31 37 37 25 31 28 23 21 31 32 24 22 17 22 33 42 40 32 29
Wind_Direction
210 198 208 200 199 212 212 218 186 249 190 169 186 176 185 182 186 186 188 184 187 185 196 208 225 236 193 229 229 231 260 247 259 269 273 275 279 281 282 284 285 288 284 282
196 208 207 205 208 219 223 216 212 204 178 195 164 177 193 187 189 192 195 192 187 189 208 189 193 180 201 202 130 135 122 100 55 26 354 315 296 284 282 277 278 277 282 290
203 206 212 214 211 221 234 225 221 203 180 196 213 163 173 220 198 196 202 203 197 195 207 190 183 171 179 176 160 134 107 79 46 24 5 351 326 295 279 277 280 290 304 302
211 210 215 218 221 213 226 224 238 223 192 217 207 233 217 198 197 201 205 207 203 198 206 212 192 189 190 181 187 164 104 60 36 14 1 351 337 307 280 269 278 294 288 295
214 217 217 221 225 223 232 221 225 229 238 238 239 234 180 198 200 207 213 210 205 208 205 209 211 199 198 184 191 182 138 35 16 0 353 352 350 333 313 299 291 287 295 295
220 223 215 218 220 217 212 235 214 224 247 252 235 221 188 212 224 222 222 217 212 208 212 216 222 221 206 203 198 197 181 351 334 337 342 348 355 349 330 316 310 313 315 314
216 219 209 206 206 207 209 209 210 228 233 242 241 230 236 201 219 232 211 195 211 207 213 215 221 224 225 227 213 222 257 291 299 316 334 346 352 346 336 320 309 310 306 308
210 220 205 203 208 204 203 212 211 207 232 231 217 190 230 216 205 198 228 201 215 214 212 223 219 226 236 236 236 240 253 280 291 305 324 339 346 353 341 327 317 313 309 306
202 221 207 205 210 206 201 228 227 253 265 261 194 219 232 225 213 209 211 223 225 218 220 222 222 227 236 240 245 247 246 265 283 298 310 331 335 348 349 331 322 314 311 309
204 219 201 208 207 215 216 212 232 244 261 281 238 241 225 182 182 198 206 217 223 232 223 219 222 228 238 244 246 260 243 255 272 288 299 324 331 336 339 337 323 318 315 311
216 203 203 200 203 212 211 226 221 234 231 253 256 81 119 151 168 174 204 215 231 235 234 229 219 229 241 247 251 264 244 251 265 277 289 315 325 325 332 336 327 322 319 317
222 235 244 202 209 210 222 209 214 241 256 266 294 307 164 159 177 193 200 225 235 238 239 227 232 225 238 244 251 263 251 249 259 268 279 296 316 317 325 331 328 321 319 319
214 226 240 230 209 210 219 220 221 228 239 258 255 207 167 186 181 180 187 181 248 259 236 234 252 233 235 244 253 263 256 249 253 262 277 289 306 313 321 326 323 319 319 319
215 217 228 240 227 207 208 220 229 243 237 240 242 229 207 216 204 203 217 247 287 269 244 245 245 228 236 248 259 262 259 252 253 263 281 288 301 312 321 322 320 321 319 323
215 221 230 231 248 248 235 221 226 234 253 267 251 224 248 192 227 222 217 270 286 293 263 248 246 245 232 242 250 257 258 250 252 261 281 291 303 314 318 318 318 319 320 324
196 214 224 242 242 239 247 252 225 225 229 242 250 247 272 201 204 230 252 259 265 273 255 243 255 248 238 241 246 253 265 255 251 265 283 284 304 313 316 319 323 319 321 325
202 210 222 239 236 246 252 243 245 244 236 237 252 262 173 152 205 243 262 284 294 306 256 241 246 246 244 245 247 253 258 264 247 255 272 292 306 312 309 314 323 331 322 319
218 220 214 231 240 243 243 253 245 246 237 245 240 237 242 256 280 299 274 300 315 297 274 240 244 247 244 247 248 252 258 256 241 257 282 298 309 304 307 315 318 315 320 324
190 214 215 224 231 243 247 250 228 345 268 259 260 238 245 266 269 290 298 283 259 286 300 279 241 240 237 242 246 247 252 228 239 269 292 303 302 306 313 308 307 313 316 327
242 194 242 216 243 254 252 254 236 319 275 280 349 231 240 228 273 302 292 256 267 281 288 283 276 236 225 235 239 240 222 229 250 278 292 300 312 304 301 302 301 305 314 320
232 227 238 233 247 259 260 290 222 221 239 286 293 205 200 348 230 245 303 296 290 285 290 294 273 240 233 228 236 223 220 233 259 285 302 311 304 298 298 295 293 297 307 312
261 232 247 244 247 248 247 192 187 167 194 187 188 208 195 221 233 245 286 291 276 266 265 280 251 236 235 218 225 226 230 244 267 293 302 297 293 291 282 285 292 294 303 305
231 238 231 255 157 67 203 137 141 160 174 197 191 207 227 252 276 289 295 286 265 261 233 238 248 236 233 223 216 217 228 240 285 292 291 288 286 290 296 286 290 294 301 300
225 120 287 258 232 216 314 165 203 238 253 271 277 279 280 278 284 285 293 283 250 246 232 231 236 236 239 230 224 232 240 272 292 291 288 286 290 290 289 287 284 288 297 307
244 229 252 254 181 201 195 227 242 257 252 262 267 277 284 289 293 292 285 254 235 224 213 222 208 218 222 220 217 240 52 268 300 291 303 302 285 283 289 289 260 300 309 305
4 227 203 91 232 236 77 104 252 249 259 277 281 291 302 305 302 292 248 225 227 225 229 227 230 239 243 281 254 245 310 315 299 309 306 294 292 284 275 284 291 300 303 302